�N����,����,�~����,�C��,���x,�C��,����,���ϕ���,�ő�u�ԕ���,�ő厞����,���˗�,�I�_���x,�n�����x,�ő啗���N��,DTYPE
"23/04/02","00:10",0.0,11.4,68.5,1010.9,331.5,3.4,4.7,357.7,0.00,5.9,13.7,"00:05:38",1
"23/04/02","00:20",0.0,11.1,69.5,1010.9,333.1,3.1,4.9,344.1,0.00,5.8,13.5,"00:14:06",1
"23/04/02","00:30",0.0,11.1,70.2,1010.9,335.0,3.5,5.4,349.7,0.00,5.9,13.6,"00:23:58",1
"23/04/02","00:40",0.0,11.1,70.9,1011.4,334.6,3.4,4.8,331.5,0.00,6.1,13.5,"00:32:36",1
"23/04/02","00:50",0.0,11.0,71.8,1011.2,330.5,3.9,6.6,338.1,0.00,6.2,13.3,"00:41:14",1
"23/04/02","01:00",0.0,10.9,72.6,1011.2,332.9,3.5,5.7,337.6,0.00,6.2,13.2,"00:53:54",1
"23/04/02","01:10",0.0,10.7,73.0,1011.2,333.0,2.8,5.2,323.9,0.00,6.1,13.2,"01:05:24",1
"23/04/02","01:20",0.0,10.8,73.7,1011.2,337.3,3.6,6.6,343.2,0.00,6.3,13.2,"01:15:18",1
"23/04/02","01:30",0.0,10.7,74.4,1011.2,335.5,4.0,8.0,324.8,0.00,6.4,13.2,"01:24:10",1
"23/04/02","01:40",0.0,10.7,75.1,1011.4,333.8,4.5,6.4,333.7,0.00,6.5,13.3,"01:39:46",1
"23/04/02","01:50",0.0,10.5,75.5,1010.9,333.0,4.4,7.4,335.4,0.00,6.4,13.2,"01:41:54",1
"23/04/02","02:00",0.0,10.5,76.0,1010.9,337.5,4.0,5.9,333.2,0.00,6.5,13.3,"01:55:56",1
"23/04/02","02:10",0.0,10.5,76.3,1011.2,334.1,5.1,8.5,340.2,0.00,6.6,13.2,"02:07:14",1
"23/04/02","02:20",0.0,10.4,76.7,1010.7,335.4,4.7,7.4,320.8,0.00,6.5,13.2,"02:14:10",1
"23/04/02","02:30",0.0,10.2,77.2,1010.9,335.8,5.0,8.1,339.8,0.00,6.4,13.2,"02:26:18",1
"23/04/02","02:40",0.0,10.1,77.9,1010.7,330.2,4.6,8.2,319.3,0.00,6.5,13.2,"02:39:52",1
"23/04/02","02:50",0.0,10.1,78.1,1010.9,330.6,4.6,7.0,336.7,0.00,6.5,13.0,"02:42:24",1
"23/04/02","03:00",0.0,10.0,78.7,1010.7,327.7,3.9,5.6,327.0,0.00,6.5,13.0,"02:57:14",1
"23/04/02","03:10",0.0,9.9,79.4,1010.7,330.1,4.5,7.7,339.1,0.00,6.5,13.1,"03:06:56",1
"23/04/02","03:20",0.0,9.8,79.8,1010.4,329.6,5.2,6.5,338.0,0.00,6.5,12.9,"03:15:36",1
"23/04/02","03:30",0.0,9.6,80.3,1010.4,332.7,5.6,7.7,344.5,0.00,6.4,13.0,"03:25:04",1
"23/04/02","03:40",0.0,9.5,80.6,1010.4,329.1,5.2,7.3,321.9,0.00,6.4,12.9,"03:39:20",1
"23/04/02","03:50",0.0,9.7,80.2,1010.4,324.7,4.7,6.2,335.5,0.00,6.5,12.8,"03:43:28",1
"23/04/02","04:00",0.0,9.7,79.9,1010.7,322.1,4.5,7.3,346.8,0.00,6.4,12.9,"03:54:48",1
"23/04/02","04:10",0.0,9.5,80.2,1010.4,331.9,4.7,6.8,334.1,0.00,6.3,13.0,"04:00:16",1
"23/04/02","04:20",0.0,9.4,80.8,1010.7,330.3,4.9,7.3,333.6,0.00,6.3,12.7,"04:17:36",1
"23/04/02","04:30",0.0,9.2,81.3,1010.4,328.1,4.4,7.0,331.1,0.00,6.2,12.7,"04:22:24",1
"23/04/02","04:40",0.0,9.2,81.7,1010.7,336.3,4.4,7.8,321.7,0.00,6.3,12.5,"04:37:36",1
"23/04/02","04:50",0.0,9.1,81.9,1010.4,335.1,4.6,7.9,340.8,0.00,6.2,12.6,"04:40:24",1
"23/04/02","05:00",0.0,9.1,82.0,1010.7,329.9,4.2,6.2,340.2,0.00,6.2,12.8,"04:54:48",1
"23/04/02","05:10",0.0,9.2,81.9,1010.7,331.3,5.1,7.5,327.7,0.00,6.3,12.7,"05:04:32",1
"23/04/02","05:20",0.0,9.2,82.1,1010.7,330.1,4.9,6.4,322.0,0.00,6.3,12.7,"05:15:44",1
"23/04/02","05:30",0.0,9.2,82.3,1010.9,331.6,5.0,8.3,337.6,0.00,6.4,12.7,"05:26:56",1
"23/04/02","05:40",0.0,9.1,82.6,1010.7,334.0,5.0,6.5,337.8,0.00,6.3,12.4,"05:35:12",1
"23/04/02","05:50",0.0,9.0,82.6,1010.4,328.6,5.0,7.3,323.2,0.00,6.2,12.4,"05:44:40",1
"23/04/02","06:00",0.0,9.2,82.1,1010.9,329.5,5.9,8.3,341.5,0.00,6.3,12.3,"05:54:08",1
"23/04/02","06:10",0.0,9.3,81.6,1010.9,330.1,5.5,8.3,331.1,0.00,6.4,12.3,"06:02:24",1
"23/04/02","06:20",0.0,9.0,81.9,1010.7,331.9,5.1,9.4,339.4,0.00,6.1,12.4,"06:16:24",1
"23/04/02","06:30",0.0,9.1,82.5,1011.2,331.4,5.5,7.8,321.6,0.00,6.3,12.3,"06:25:14",1
"23/04/02","06:40",0.0,8.9,83.0,1011.2,334.0,4.9,7.2,318.7,0.00,6.2,12.1,"06:30:24",1
"23/04/02","06:50",0.0,8.8,83.6,1010.9,334.1,4.0,6.6,332.0,0.00,6.2,12.3,"06:43:12",1
"23/04/02","07:00",0.0,8.9,83.9,1011.4,332.4,4.2,6.5,331.7,0.00,6.4,12.4,"06:58:08",1
"23/04/02","07:10",0.0,9.1,83.5,1011.4,329.4,5.0,7.0,323.6,0.01,6.5,12.2,"07:06:08",1
"23/04/02","07:20",0.0,9.3,82.8,1011.4,336.3,4.9,7.8,343.7,0.02,6.6,12.3,"07:19:20",1
"23/04/02","07:30",0.0,9.5,82.0,1011.9,335.0,4.6,7.2,338.2,0.03,6.6,12.2,"07:26:32",1
"23/04/02","07:40",0.0,9.7,81.4,1011.6,325.9,5.2,7.1,327.5,0.04,6.7,12.1,"07:34:24",1
"23/04/02","07:50",0.0,10.1,80.4,1011.6,328.4,5.6,8.1,315.3,0.07,6.9,12.1,"07:46:00",1
"23/04/02","08:00",0.0,10.6,79.5,1011.4,331.9,5.1,7.1,328.0,0.12,7.2,12.2,"07:52:32",1
"23/04/02","08:10",0.0,11.0,78.4,1011.6,331.8,4.4,8.0,337.1,0.12,7.4,12.1,"08:06:32",1
"23/04/02","08:20",0.0,11.5,77.1,1011.4,333.6,3.9,5.7,338.0,0.15,7.7,12.0,"08:10:16",1
"23/04/02","08:30",0.0,12.0,75.6,1011.6,330.3,3.9,5.9,315.3,0.18,7.9,12.1,"08:20:40",1
"23/04/02","08:40",0.0,12.4,74.2,1011.6,323.6,4.1,6.8,331.4,0.22,8.0,12.2,"08:31:38",1
"23/04/02","08:50",0.0,12.3,72.8,1011.4,326.4,5.4,8.5,320.8,0.20,7.6,12.1,"08:47:04",1
"23/04/02","09:00",0.0,12.6,73.4,1011.4,330.2,4.6,6.7,339.3,0.22,8.0,12.2,"08:54:06",1
"23/04/02","09:10",0.0,13.2,72.5,1011.4,327.2,4.5,7.2,339.6,0.27,8.4,12.3,"09:06:48",1
"23/04/02","09:20",0.0,13.5,71.9,1011.4,329.0,4.5,6.3,334.7,0.26,8.6,12.2,"09:10:08",1
"23/04/02","09:30",0.0,14.1,71.0,1011.4,321.6,4.0,7.5,343.6,0.30,9.0,12.3,"09:20:16",1
"23/04/02","09:40",0.0,14.5,70.0,1011.6,319.5,3.7,6.4,333.3,0.30,9.1,12.2,"09:35:36",1
"23/04/02","09:50",0.0,14.8,68.9,1011.2,311.4,3.5,6.0,307.9,0.31,9.2,12.3,"09:47:12",1
"23/04/02","10:00",0.0,15.3,68.9,1011.4,308.9,3.6,5.8,323.0,0.38,9.7,12.5,"09:57:12",1
"23/04/02","10:10",0.0,15.6,67.6,1011.4,313.4,3.6,6.0,304.6,0.39,9.7,12.5,"10:02:40",1
"23/04/02","10:20",0.0,16.1,66.8,1011.2,309.8,3.4,5.6,330.4,0.41,10.0,12.4,"10:11:20",1
"23/04/02","10:30",0.0,16.6,65.5,1011.2,310.1,3.2,5.0,309.9,0.40,10.2,12.5,"10:24:00",1
"23/04/02","10:40",0.0,17.2,64.7,1011.4,312.2,3.4,5.7,331.3,0.39,10.5,12.7,"10:39:52",1
"23/04/02","10:50",0.0,17.2,63.1,1010.7,316.7,3.5,6.0,342.5,0.42,10.2,12.6,"10:47:04",1
"23/04/02","11:00",0.0,17.6,62.9,1010.9,306.9,3.6,6.2,329.3,0.40,10.5,12.7,"10:52:48",1
"23/04/02","11:10",0.0,17.9,62.2,1010.9,326.1,3.9,5.6,337.0,0.42,10.6,12.5,"11:05:44",1
"23/04/02","11:20",0.0,18.2,61.6,1010.7,315.7,3.6,5.6,330.8,0.46,10.7,12.7,"11:13:28",1
"23/04/02","11:30",0.0,19.0,61.6,1010.7,302.7,3.0,5.4,304.2,0.47,11.5,12.8,"11:20:24",1
"23/04/02","11:40",0.0,19.2,59.5,1010.2,256.7,3.1,6.6,235.7,0.44,11.2,12.9,"11:39:04",1
"23/04/02","11:50",0.0,20.1,59.1,1010.4,180.1,1.7,3.7,242.7,0.43,11.9,13.1,"11:40:08",1
"23/04/02","12:00",0.0,20.4,56.9,1010.0,114.3,1.6,3.6,105.9,0.41,11.6,13.0,"11:57:36",1
"23/04/02","12:10",0.0,20.7,55.9,1009.7,155.7,1.6,3.6,123.2,0.46,11.6,13.0,"12:00:40",1
"23/04/02","12:20",0.0,20.9,53.1,1009.7,157.4,1.8,3.9,146.9,0.46,11.0,13.3,"12:18:08",1
"23/04/02","12:30",0.0,21.5,53.6,1009.5,2.5,1.2,2.7,342.2,0.48,11.7,13.4,"12:28:48",1
"23/04/02","12:40",0.0,20.6,54.4,1009.0,329.2,2.6,6.0,35.5,0.36,11.1,13.2,"12:35:28",1
"23/04/02","12:50",0.0,19.9,56.9,1009.3,329.1,2.6,5.0,343.5,0.22,11.2,13.7,"12:45:04",1
"23/04/02","13:00",0.0,20.2,56.3,1009.3,302.1,2.3,5.0,332.7,0.27,11.3,13.7,"12:58:00",1
"23/04/02","13:10",0.0,20.5,55.3,1009.0,305.4,2.0,4.0,326.0,0.24,11.3,13.5,"13:01:36",1
"23/04/02","13:20",0.0,20.9,54.4,1009.0,329.7,1.3,2.9,309.5,0.27,11.4,13.8,"13:17:04",1
"23/04/02","13:30",0.0,20.5,55.0,1008.6,307.1,2.2,5.5,340.5,0.16,11.2,13.7,"13:25:20",1
"23/04/02","13:40",0.0,20.1,55.5,1009.0,290.5,1.8,3.9,345.3,0.13,11.0,13.9,"13:38:00",1
"23/04/02","13:50",0.0,20.0,56.1,1008.8,266.7,2.1,3.6,243.0,0.12,11.0,14.1,"13:47:52",1
"23/04/02","14:00",0.0,20.2,55.9,1008.8,261.2,2.0,3.9,235.5,0.16,11.2,13.9,"13:57:28",1
"23/04/02","14:10",0.0,20.5,55.2,1008.6,280.4,2.1,3.3,264.3,0.27,11.3,13.8,"14:05:36",1
"23/04/02","14:20",0.0,22.1,54.3,1008.6,262.1,1.8,4.0,287.6,0.59,12.5,14.0,"14:12:08",1
"23/04/02","14:30",0.0,20.8,52.9,1008.3,308.1,2.6,5.9,320.8,0.16,10.9,14.1,"14:28:56",1
"23/04/02","14:40",0.0,19.9,58.5,1008.6,311.9,2.6,4.1,339.1,0.04,11.6,14.3,"14:36:16",1
"23/04/02","14:50",0.4,18.8,65.8,1008.6,299.6,2.5,4.7,305.2,0.05,12.3,14.0,"14:49:44",1
"23/04/02","15:00",0.0,17.9,68.0,1008.6,310.9,3.4,7.0,349.3,0.09,12.0,14.2,"14:58:32",1
"23/04/02","15:10",0.0,18.4,64.3,1008.8,319.6,4.2,6.2,317.5,0.12,11.6,14.3,"15:01:04",1
"23/04/02","15:20",0.0,19.6,62.7,1009.0,332.8,3.7,7.7,347.0,0.34,12.3,14.4,"15:16:40",1
"23/04/02","15:30",0.0,19.9,56.7,1008.8,340.9,4.4,9.1,314.1,0.43,11.1,14.2,"15:28:40",1
"23/04/02","15:40",0.0,19.4,57.3,1009.0,343.6,4.6,8.2,340.9,0.34,10.8,14.5,"15:32:24",1
"23/04/02","15:50",0.0,19.0,56.9,1008.8,345.3,5.7,9.6,336.8,0.31,10.3,14.3,"15:45:28",1
"23/04/02","16:00",0.0,19.2,55.6,1008.3,347.4,4.6,9.4,347.5,0.31,10.2,14.5,"15:58:16",1
"23/04/02","16:10",0.0,19.2,55.2,1008.6,344.3,5.0,9.3,338.3,0.28,10.0,14.4,"16:07:28",1
"23/04/02","16:20",0.0,18.9,54.4,1008.3,338.2,6.0,10.4,343.1,0.28,9.5,14.5,"16:15:46",1
"23/04/02","16:30",0.0,18.8,53.5,1008.8,344.0,5.1,10.5,327.6,0.25,9.2,14.4,"16:28:16",1
"23/04/02","16:40",0.0,18.7,53.1,1008.6,347.7,4.7,9.8,333.8,0.20,9.0,14.5,"16:37:36",1
"23/04/02","16:50",0.0,18.1,53.4,1009.0,348.8,5.0,11.3,344.0,0.15,8.5,14.6,"16:49:20",1
"23/04/02","17:00",0.0,17.8,54.7,1009.0,346.8,5.4,9.1,350.4,0.17,8.6,14.4,"16:56:40",1
"23/04/02","17:10",0.0,17.3,55.5,1008.8,343.7,5.9,10.5,341.6,0.14,8.4,14.6,"17:08:08",1
"23/04/02","17:20",0.0,16.8,56.9,1009.0,345.6,6.1,11.1,333.4,0.13,8.3,14.6,"17:16:02",1
"23/04/02","17:30",0.0,16.3,58.3,1009.3,345.9,6.4,10.8,349.2,0.11,8.1,14.6,"17:26:24",1
"23/04/02","17:40",0.0,15.8,59.6,1009.7,342.3,5.9,9.5,347.2,0.08,8.0,14.4,"17:37:22",1
"23/04/02","17:50",0.0,15.2,61.0,1009.5,339.2,6.6,11.7,320.5,0.05,7.8,14.3,"17:42:10",1
"23/04/02","18:00",0.0,15.1,62.1,1010.2,340.0,5.0,9.0,334.4,0.05,7.9,14.5,"17:56:36",1
"23/04/02","18:10",0.0,14.7,63.0,1010.2,341.0,4.7,8.5,346.9,0.03,7.8,14.3,"18:08:12",1
"23/04/02","18:20",0.0,14.3,64.3,1010.2,343.3,4.2,8.0,332.5,0.01,7.7,14.2,"18:11:04",1
"23/04/02","18:30",0.0,14.0,65.2,1010.7,342.4,4.4,7.7,338.6,0.01,7.6,14.3,"18:20:36",1
"23/04/02","18:40",0.0,13.8,65.3,1010.7,337.4,5.6,12.3,322.0,0.00,7.4,14.3,"18:33:24",1
"23/04/02","18:50",0.0,13.5,65.6,1011.4,334.5,5.1,9.3,329.3,0.00,7.2,14.1,"18:49:16",1
"23/04/02","19:00",0.0,13.3,66.4,1011.2,336.3,5.4,10.3,336.9,0.00,7.2,14.2,"18:55:24",1
"23/04/02","19:10",0.0,13.1,67.0,1010.9,340.1,4.9,9.0,352.8,0.00,7.2,14.2,"19:06:12",1
"23/04/02","19:20",0.0,12.9,67.6,1011.4,335.2,5.1,8.6,334.3,0.00,7.1,14.2,"19:18:00",1
"23/04/02","19:30",0.0,12.6,68.2,1011.4,328.1,5.0,8.3,340.5,0.00,6.9,14.3,"19:24:54",1
"23/04/02","19:40",0.0,12.5,68.7,1011.4,333.4,6.5,10.2,328.4,0.00,7.0,14.0,"19:39:50",1
"23/04/02","19:50",0.0,12.3,69.2,1011.4,332.7,5.5,9.3,351.4,0.00,6.9,14.4,"19:40:24",1
"23/04/02","20:00",0.0,12.2,69.4,1011.6,335.1,6.0,10.9,318.6,0.00,6.8,14.1,"19:56:50",1
"23/04/02","20:10",0.0,12.1,69.6,1011.9,332.9,6.0,9.0,322.5,0.00,6.8,14.0,"20:01:12",1
"23/04/02","20:20",0.0,12.0,69.9,1012.1,331.6,5.6,9.8,320.2,0.00,6.7,13.7,"20:14:34",1
"23/04/02","20:30",0.0,12.0,70.2,1012.3,332.7,5.4,9.5,332.3,0.00,6.8,13.8,"20:25:22",1
"23/04/02","20:40",0.0,11.8,70.7,1012.6,335.1,5.1,8.8,323.9,0.00,6.7,13.9,"20:30:48",1
"23/04/02","20:50",0.0,11.8,71.2,1012.6,332.5,5.1,10.2,344.8,0.00,6.8,13.9,"20:43:38",1
"23/04/02","21:00",0.0,11.8,71.4,1013.0,331.9,5.9,9.4,334.9,0.00,6.8,13.9,"20:55:04",1
"23/04/02","21:10",0.0,11.7,71.6,1013.0,334.7,5.7,8.2,324.6,0.00,6.8,13.7,"21:01:36",1
"23/04/02","21:20",0.0,11.7,71.7,1013.5,332.7,5.6,10.8,328.2,0.00,6.8,13.7,"21:15:46",1
"23/04/02","21:30",0.0,11.7,71.8,1013.3,326.2,6.2,10.8,326.5,0.00,6.8,13.6,"21:28:04",1
"23/04/02","21:40",0.0,11.7,71.8,1013.3,330.2,5.9,8.9,322.3,0.00,6.8,13.7,"21:38:08",1
"23/04/02","21:50",0.0,11.7,71.9,1013.5,330.0,6.1,11.4,337.2,0.00,6.8,13.3,"21:49:52",1
"23/04/02","22:00",0.0,11.7,72.1,1013.5,333.1,6.2,10.8,337.6,0.00,6.9,13.5,"21:53:30",1
"23/04/02","22:10",0.0,11.7,72.2,1013.5,334.8,6.2,8.7,346.3,0.00,6.9,13.5,"22:08:18",1
"23/04/02","22:20",0.0,11.7,72.2,1013.8,334.4,6.1,9.1,338.3,0.00,6.9,13.4,"22:12:40",1
"23/04/02","22:30",0.0,11.6,72.3,1013.8,333.1,5.5,8.7,320.5,0.00,6.8,13.3,"22:22:32",1
"23/04/02","22:40",0.0,11.6,72.5,1013.8,328.2,5.2,8.3,341.5,0.00,6.9,13.4,"22:35:44",1
"23/04/02","22:50",0.0,11.6,72.7,1013.8,327.7,4.2,5.6,333.7,0.00,6.9,13.5,"22:45:12",1
"23/04/02","23:00",0.0,11.6,72.8,1013.8,329.6,4.9,8.0,341.1,0.00,6.9,13.2,"22:59:00",1
"23/04/02","23:10",0.0,11.6,73.0,1013.8,333.5,5.2,9.5,334.9,0.00,7.0,13.3,"23:02:24",1
"23/04/02","23:20",0.0,11.5,73.2,1014.0,328.5,5.6,7.8,336.2,0.00,6.9,13.3,"23:11:04",1
"23/04/02","23:30",0.0,11.4,73.4,1013.8,329.6,4.6,7.1,318.6,0.00,6.9,13.1,"23:22:56",1
"23/04/02","23:40",0.0,11.4,73.4,1014.0,333.6,5.1,8.5,344.6,0.00,6.9,13.3,"23:32:08",1
"23/04/02","23:50",0.0,11.3,73.5,1013.8,328.8,4.2,6.2,321.0,0.00,6.8,13.0,"23:40:48",1
"23/04/02","24:00",0.0,11.3,73.3,1013.5,329.9,5.0,7.8,338.5,0.00,6.7,13.1,"23:52:50",1
